Weather reports worldwide

Advertisment
Wick Airport (AWS), United Kingdom (3075): temperature & dewpoint: 19.03.2019 06:00:00 - 25.03.2019 06:00:00 (GMT)Wick Airport (AWS), United Kingdom (3075): temperature -20cm: 19.03.2019 06:00:00 - 25.03.2019 06:00:00 (GMT)Wick Airport (AWS), United Kingdom (3075): wind speed & gusts: 19.03.2019 06:00:00 - 25.03.2019 06:00:00 (GMT)Wick Airport (AWS), United Kingdom (3075): wind direction: 19.03.2019 06:00:00 - 25.03.2019 06:00:00 (GMT)Wick Airport (AWS), United Kingdom (3075): reduced air pressure: 19.03.2019 06:00:00 - 25.03.2019 06:00:00 (GMT)Wick Airport (AWS), United Kingdom (3075): visibility: 19.03.2019 06:00:00 - 25.03.2019 06:00:00 (GMT)Wick Airport (AWS), United Kingdom (3075): precipitation: 19.03.2019 06:00:00 - 25.03.2019 06:00:00 (GMT)
Date & Time tt [°C] td [°C] tt -20cm [°C] ff [km/h] ff [kn] fx [km/h] fx [kn] dd ppp [hPa] vv [km] rr [mm]
25.03.2019 06:00:00 4,4 2,7 - 22 12 - - WNW 1027,4 14 0,0
25.03.2019 05:00:00 5,4 1,8 - 35 19 48 26 NW 1026,1 23 0,0
25.03.2019 04:00:00 5,9 1,7 - 34 18 48 26 NW 1025,4 24 0,0
25.03.2019 03:00:00 6,2 2,1 - 35 19 54 29 NW 1024,7 18 0,0
25.03.2019 02:00:00 5,8 2,6 - 41 22 61 33 WNW 1023,7 14 0,0
25.03.2019 01:00:00 5,3 2,3 - 35 19 57 31 NW 1022,8 17 0,0
25.03.2019 00:00:00 4,4 2,6 - 42 23 65 35 NW 1021,6 45 0,4
24.03.2019 23:00:00 5,4 3,4 - 39 21 55 30 WNW 1020,4 16 0,0
24.03.2019 22:00:00 4,9 2,9 - 39 21 65 35 WNW 1019,2 16 0,0
24.03.2019 21:00:00 5,7 3,1 - 54 29 74 40 WNW 1017,4 15 0,0
24.03.2019 20:00:00 5,3 3,0 - 54 29 81 44 WNW 1016,1 20 0,4
24.03.2019 19:00:00 4,4 3,3 - 50 27 76 41 W 1015,0 24 0,4
24.03.2019 18:00:00 4,6 3,2 - 46 25 72 39 W 1014,6 17 0,6
24.03.2019 17:00:00 4,5 3,2 - 37 20 87 47 W 1015,1 7 0,8
24.03.2019 16:00:00 7,1 1,4 - 48 26 72 39 W 1013,9 13 0,0
24.03.2019 15:00:00 5,8 3,0 - 48 26 78 42 W 1014,1 15 0,0
24.03.2019 14:00:00 6,3 1,2 - 50 27 74 40 W 1014,2 35 0,2
24.03.2019 13:00:00 6,6 3,0 - 42 23 67 36 W 1014,2 28 0,0
24.03.2019 12:00:00 8,6 3,8 - 46 25 63 34 W 1013,8 22 0,0
24.03.2019 11:00:00 5,7 3,2 - 41 22 70 38 WSW 1014,1 35 0,2
24.03.2019 10:00:00 7,4 3,9 - 41 22 59 32 W 1014,1 35 0,0
24.03.2019 09:00:00 5,4 3,1 5,7 31 17 52 28 SW 1014,5 19 0,2
24.03.2019 08:00:00 5,6 3,1 - 28 15 50 27 WSW 1015,4 30 0,0
24.03.2019 07:00:00 4,6 1,6 - 35 19 59 32 SSW 1015,7 50 0,0
24.03.2019 06:00:00 4,0 0,9 - 35 19 48 26 SW 1016,5 45 0,0
24.03.2019 05:00:00 4,4 1,6 - 26 14 - - SSW 1017,9 45 0,0
24.03.2019 04:00:00 4,5 1,7 - 28 15 - - SSW 1019,1 50 0,0
24.03.2019 03:00:00 4,5 2,1 - 26 14 - - SSW 1020,1 40 0,0
24.03.2019 02:00:00 4,1 1,6 - 21 11 - - S 1021,0 50 0,0
24.03.2019 01:00:00 4,7 1,2 - 28 15 - - SSW 1022,3 40 0,0
24.03.2019 00:00:00 4,3 0,9 - 26 14 - - SSW 1023,1 45 0,0
23.03.2019 23:00:00 4,2 1,2 - 29 16 48 26 SW 1024,0 50 0,0
23.03.2019 22:00:00 4,6 1,8 - 34 18 46 25 SW 1024,9 40 0,0
23.03.2019 21:00:00 5,1 1,8 - 37 20 48 26 SW 1025,3 45 0,0
23.03.2019 20:00:00 4,4 2,2 - 31 17 57 31 SW 1025,5 35 0,0
23.03.2019 19:00:00 5,1 1,9 - 28 15 48 26 SW 1025,5 35 0,0
23.03.2019 18:00:00 6,5 1,8 - 22 12 - - SW 1025,5 40 0,0
23.03.2019 17:00:00 6,9 2,3 - 28 15 55 30 WSW 1025,5 45 0,0
23.03.2019 16:00:00 8,0 0,2 - 39 21 55 30 WSW 1025,6 20 0,0
23.03.2019 15:00:00 8,2 0,1 - 42 23 61 33 WSW 1025,4 23 0,0
23.03.2019 14:00:00 7,4 0,7 - 42 23 67 36 W 1025,3 35 0,0
23.03.2019 13:00:00 8,6 0,2 - 54 29 72 39 W 1024,8 28 0,0
23.03.2019 12:00:00 8,2 -0,8 - 46 25 74 40 W 1024,0 45 0,0
23.03.2019 11:00:00 7,9 0,5 - 48 26 65 35 W 1023,3 30 0,0
23.03.2019 10:00:00 7,2 0,0 - 52 28 70 38 W 1022,4 23 0,0
23.03.2019 09:00:00 4,9 1,0 6,4 50 27 72 39 W 1021,5 21 0,0
23.03.2019 08:00:00 3,6 0,8 - 37 20 55 30 WSW 1020,6 30 0,0
23.03.2019 07:00:00 2,9 -0,5 - 29 16 50 27 WSW 1019,7 40 0,0
23.03.2019 06:00:00 2,8 0,1 - 39 21 67 36 SW 1018,7 35 0,0
23.03.2019 05:00:00 3,0 0,2 - 26 14 46 25 WSW 1018,2 45 0,0
23.03.2019 04:00:00 2,5 -0,4 - 29 16 55 30 SW 1017,8 30 0,0
23.03.2019 03:00:00 2,7 -0,2 - 39 21 50 27 SW 1017,0 24 0,0
23.03.2019 02:00:00 2,4 -1,5 - 26 14 55 30 SW 1016,8 20 0,0
23.03.2019 01:00:00 2,7 -1,1 - 42 23 57 31 WSW 1016,4 29 0,0
23.03.2019 00:00:00 2,4 0,4 - 37 20 50 27 SW 1015,6 40 0,0
22.03.2019 23:00:00 2,4 0,7 - 41 22 83 45 WSW 1015,3 45 0,2
22.03.2019 22:00:00 3,2 0,1 - 39 21 74 40 SW 1014,2 30 0,0
22.03.2019 21:00:00 4,1 -0,3 - 57 31 83 45 SW 1013,0 26 0,0
22.03.2019 20:00:00 4,5 1,0 - 41 22 72 39 SW 1012,2 24 0,0
22.03.2019 19:00:00 4,6 1,3 - 44 24 78 42 SW 1011,7 40 0,0
22.03.2019 18:00:00 7,1 0,6 - 42 23 65 35 SW 1011,0 27 0,0
22.03.2019 17:00:00 8,2 0,4 - 48 26 81 44 WSW 1010,1 35 0,0
22.03.2019 16:00:00 9,9 1,5 - 48 26 72 39 SW 1009,9 35 0,0
22.03.2019 15:00:00 10,2 2,9 - 50 27 67 36 WSW 1009,6 30 0,0
22.03.2019 14:00:00 11,0 5,1 - 41 22 68 37 WSW 1009,3 16 0,0
22.03.2019 13:00:00 10,2 5,9 - 39 21 55 30 SW 1009,1 30 0,0
22.03.2019 12:00:00 9,3 7,2 - 41 22 67 36 SW 1008,9 11 1,0
22.03.2019 11:00:00 10,7 7,3 - 41 22 68 37 S 1008,2 18 0,0
22.03.2019 10:00:00 10,6 6,2 - 41 22 63 34 S 1008,7 30 0,0
22.03.2019 09:00:00 10,1 5,9 6,7 44 24 68 37 S 1009,0 35 0,0
22.03.2019 08:00:00 10,4 5,8 - 44 24 70 38 S 1009,4 40 0,0
22.03.2019 07:00:00 9,8 6,0 - 46 25 63 34 S 1009,8 24 0,0
22.03.2019 06:00:00 9,3 6,1 - 31 17 52 28 S 1010,9 19 0,0
22.03.2019 05:00:00 9,3 6,1 - 22 12 52 28 SSE 1012,9 13 0,0
22.03.2019 04:00:00 9,7 6,6 - 31 17 48 26 S 1013,6 18 0,0
22.03.2019 03:00:00 9,8 7,9 - 35 19 54 29 SSE 1014,3 22 0,0
22.03.2019 02:00:00 9,5 7,9 - 31 17 55 30 SSE 1015,3 22 0,0
22.03.2019 01:00:00 9,0 7,7 - 39 21 55 30 SSE 1017,1 20 0,0
22.03.2019 00:00:00 8,5 7,6 - 39 21 57 31 SSE 1018,3 13 0,0
21.03.2019 23:00:00 7,9 7,2 - 26 14 - - SE 1020,5 13 0,0
21.03.2019 22:00:00 7,9 6,7 - 26 14 - - SSE 1021,7 14 0,0
21.03.2019 21:00:00 8,2 6,2 - 24 13 - - SSE 1023,8 27 0,0
21.03.2019 20:00:00 8,2 5,6 - 22 12 - - SE 1024,6 30 0,0
21.03.2019 19:00:00 8,1 4,5 - 16 9 - - SSE 1025,5 24 0,0
21.03.2019 18:00:00 8,0 4,2 - 16 9 - - SSE 1026,0 35 0,0
21.03.2019 17:00:00 8,2 4,3 - 13 7 - - SSE 1026,1 27 0,0
21.03.2019 16:00:00 9,9 5,2 - 15 8 - - S 1027,1 45 0,0
21.03.2019 15:00:00 10,3 5,7 - 8 4 - - S 1027,5 27 0,0
21.03.2019 14:00:00 9,3 5,6 - 18 10 - - S 1026,9 30 0,0
21.03.2019 13:00:00 10,2 5,1 - 15 8 - - S 1027,3 24 0,0
21.03.2019 12:00:00 10,3 3,0 - 11 6 - - W 1026,7 16 0,0
21.03.2019 11:00:00 10,0 3,8 - 15 8 - - W 1026,1 35 0,0
21.03.2019 10:00:00 8,8 5,7 - 16 9 - - W 1025,5 25 0,0
21.03.2019 09:00:00 7,3 6,0 6,0 8 4 - - SW 1024,7 20 0,0
21.03.2019 08:00:00 6,3 5,7 - 18 10 - - NW 1023,9 23 0,2
21.03.2019 07:00:00 6,6 6,3 - 21 11 - - WNW 1022,4 22 0,0
21.03.2019 06:00:00 6,9 6,6 - 18 10 - - WNW 1020,7 15 0,2
21.03.2019 05:00:00 7,6 7,3 - 21 11 - - WNW 1019,3 4,3 0,8
21.03.2019 04:00:00 8,7 7,8 - 24 13 - - WNW 1018,0 3,0 0,6
21.03.2019 03:00:00 10,5 9,4 - 26 14 - - SSW 1017,1 15 0,2
21.03.2019 02:00:00 10,4 9,3 - 26 14 - - SSW 1016,9 6 0,0
21.03.2019 01:00:00 10,8 9,3 - 26 14 - - SW 1016,7 17 0,0
21.03.2019 00:00:00 10,1 8,6 - 13 7 57 31 S 1016,6 35 0,0
20.03.2019 23:00:00 10,0 7,5 - 16 9 - - S 1016,4 13 0,0
20.03.2019 22:00:00 11,3 7,7 - 26 14 52 28 SSW 1015,9 50 0,0
20.03.2019 21:00:00 11,5 7,9 - 39 21 54 29 SSW 1015,2 45 0,0
20.03.2019 20:00:00 10,5 8,5 - 39 21 52 28 SSW 1015,3 45 0,0
20.03.2019 19:00:00 10,8 8,3 - 39 21 61 33 SSW 1015,0 50 0,0
20.03.2019 18:00:00 11,4 8,3 - 39 21 55 30 SSW 1015,2 45 0,0
20.03.2019 17:00:00 11,8 8,3 - 35 19 63 34 S 1015,5 35 0,0
20.03.2019 16:00:00 11,6 7,8 - 35 19 48 26 S 1016,7 30 0,0
20.03.2019 15:00:00 10,6 7,1 - 28 15 46 25 S 1017,8 35 0,0
20.03.2019 14:00:00 9,4 6,0 - 26 14 - - SSE 1019,1 25 0,0
20.03.2019 13:00:00 9,6 5,9 - 24 13 - - S 1020,2 21 0,0
20.03.2019 12:00:00 9,5 4,3 - 24 13 - - S 1021,1 12 0,0
20.03.2019 11:00:00 10,1 4,3 - 16 9 - - SSW 1021,4 12 0,0
20.03.2019 10:00:00 9,1 4,2 - 26 14 - - SW 1021,9 15 0,0
20.03.2019 09:00:00 8,1 4,5 5,2 21 11 - - S 1021,6 11 0,0
20.03.2019 08:00:00 8,0 3,5 - 22 12 - - SW 1021,2 16 0,0
20.03.2019 07:00:00 7,4 2,9 - 16 9 - - S 1021,3 18 0,0
20.03.2019 06:00:00 6,6 2,9 - 16 9 - - SW 1020,5 15 0,0
20.03.2019 05:00:00 5,3 2,9 - 8 4 - - S 1020,3 16 0,0
20.03.2019 04:00:00 5,9 3,5 - 15 8 - - SSW 1019,5 16 0,0
20.03.2019 03:00:00 6,1 4,2 - 8 4 - - SSW 1019,3 14 0,0
20.03.2019 02:00:00 7,1 5,2 - 22 12 - - SW 1018,9 10 0,0
20.03.2019 01:00:00 7,7 3,0 - 15 8 - - S 1018,8 15 0,0
20.03.2019 00:00:00 7,7 3,0 - 16 9 - - SW 1018,6 15 0,0
19.03.2019 23:00:00 8,5 4,1 - 8 4 - - S 1018,4 17 0,0
19.03.2019 22:00:00 8,2 4,2 - 5 3 - - SSW 1017,7 21 0,0
19.03.2019 21:00:00 7,4 4,4 - 15 8 - - WSW 1016,8 26 0,0
19.03.2019 20:00:00 9,1 5,6 - 29 16 - - WSW 1016,0 30 0,0
19.03.2019 19:00:00 9,4 5,9 - 28 15 46 25 WSW 1015,3 45 0,0
19.03.2019 18:00:00 10,6 7,6 - 35 19 48 26 SW 1014,5 50 0,0
19.03.2019 17:00:00 11,5 8,1 - 31 17 46 25 WSW 1014,1 45 0,0
19.03.2019 16:00:00 11,4 7,6 - 26 14 - - SW 1013,3 50 0,0
19.03.2019 15:00:00 11,9 8,2 - 24 13 - - SW 1013,3 30 0,0
19.03.2019 14:00:00 10,1 7,1 - 24 13 46 25 S 1013,5 30 0,0
19.03.2019 13:00:00 9,5 6,4 - 31 17 - - S 1013,5 40 0,0
19.03.2019 12:00:00 8,5 6,8 - 29 16 - - S 1013,8 22 0,0
19.03.2019 11:00:00 7,4 6,6 - 21 11 - - S 1014,4 28 0,2
19.03.2019 10:00:00 7,2 6,4 - 22 12 - - S 1015,2 10 0,6
19.03.2019 09:00:00 6,8 5,7 4,7 16 9 - - SSW 1015,7 12 0,8
19.03.2019 08:00:00 7,0 5,3 - 18 10 - - SSW 1015,8 35 0,0
19.03.2019 07:00:00 5,9 4,7 - 13 7 - - S 1016,2 45 0,0
19.03.2019 06:00:00 6,0 4,6 - 13 7 - - S 1016,1 50 0,0

tt = temperature
td = dewpoint
tt -20cm = temperature -20cm
ff = wind speed
fx = gusts
dd = wind direction
ppp = reduced air pressure
vv = visibility
rr = precipitation

Next stations